User: anonymous   Login
Location: Caltech
(34.1382°N, 118.1253°W)
Time: 19:59:44
(UTC-08:00)
Language:

Cosmos 1975 - Orbit

View from above orbital plane
View from above orbital plane
View from above satellite
View from above satellite

Ground track
Ground track

The orbit data is extracted from the following two-line orbital elements,

1 19573U 88093A   14331.11954546  .00003906  00000-0  30104-3 0  3746
2 19573 082.5210 166.9019 0014174 228.1855 131.8160 15.01299104419630
Epoch (UTC): 27 November 2014 02:52:08
Eccentricity: 0.0014174
inclination: 82.5210°
perigee height: 553 km
apogee height: 573 km
right ascension of ascending node: 166.9019°
argument of perigee: 228.1855°
revolutions per day: 15.01299104
mean anomaly at epoch: 131.8160°
orbit number at epoch: 41963

The dashed part of the orbit path shows where the satellite is in the earth's shadow,  

DLR